Location: Morisset
(33.1080°S, 151.4871°E)
Time: 07:24:01
(UTC+00:00)

ATLAS 3B R/B - Pass Details

Date: 29 October 2020
Orbit: 1014 x 1181 km, 63.8° (Epoch: 23 November)

Event Time Altitude Azimuth Distance (km) Brightness Sun altitude
Rises 13:57:37 0° 203° (SSW) 3,989 6.3 -42.9°
Reaches altitude 10° 14:00:39 10° 194° (SSW) 2,999 5.6 -42.8°
Enters shadow 14:05:22 32° 158° (SSE) 1,790 4.2 -42.7°
